Date String (YYYY-MM-DD hh:mm:ss) UTC,Instrument flags,Ambient pressure (hPa),Sample flow (lpm),Bypass flow (lpm),Sample temperature (°C),Ambient temperature (°C),ASC tube jacket temperature (°C),LED temperature (°C),Box temperature (°C),Sample RH (%),Span deviation,Mass concentration (μg/m³),Mass concentration (μg/m³),Mass concentration (μg/m³)
DateTimeUTC,F1_M11,P_M11,Q1_M11,Q2_M11,T1_M11,T2_M11,T3_M11,T4_M11,T5_M11,U1_M11,ZSPAN_M11,X0_M11,X2_M11,X1_M11
2023-05-14 03:00:00,,0839.2,5.00,0.00,30.1,28.5,00.0,38.4,31.6,26.1,0000.0,0003.66,0002.83,0002.61
2023-05-14 03:01:00,,0839.2,4.99,0.00,30.1,28.5,00.0,38.4,31.6,26.1,0000.0,0003.64,0002.82,0002.60
2023-05-14 03:02:00,,0839.2,5.01,0.00,30.1,28.5,00.0,38.4,31.6,26.1,0000.0,0003.62,0002.80,0002.58
2023-05-14 03:03:00,,0839.2,4.99,0.00,30.1,28.5,00.0,38.4,31.7,26.1,0000.0,0003.62,0002.79,0002.56
2023-05-14 03:04:00,,0839.2,5.00,0.00,30.1,28.5,00.0,38.4,31.7,26.1,0000.0,0003.54,0002.77,0002.56
2023-05-14 03:05:00,,0839.2,4.99,0.00,30.1,28.6,00.0,38.4,31.7,26.1,0000.0,0003.47,0002.77,0002.58
2023-05-14 03:06:00,,0839.2,5.01,0.00,30.1,28.6,00.0,38.5,31.7,26.1,0000.0,0003.09,0002.78,0002.59
2023-05-14 03:07:00,,0839.3,5.00,0.00,30.1,28.6,00.0,38.5,31.7,26.1,0000.0,0003.13,0002.83,0002.59
2023-05-14 03:08:00,,0839.2,4.99,0.00,30.1,28.6,00.0,38.5,31.7,26.2,0000.0,0003.17,0002.84,0002.59
2023-05-14 03:09:00,,0839.2,5.01,0.00,30.1,28.6,00.0,38.5,31.7,26.2,0000.0,0003.23,0002.85,0002.59
2023-05-14 03:10:00,,0839.2,5.00,0.00,30.1,28.6,00.0,38.5,31.7,26.2,0000.0,0003.17,0002.83,0002.59
2023-05-14 03:11:00,,0839.3,5.01,0.00,30.1,28.6,00.0,38.5,31.7,26.2,0000.0,0003.13,0002.82,0002.60
2023-05-14 03:12:00,,0839.2,4.99,0.00,30.1,28.6,00.0,38.5,31.7,26.2,0000.0,0003.24,0002.88,0002.61
2023-05-14 03:13:00,,0839.2,4.99,0.00,30.1,28.6,00.0,38.5,31.7,26.1,0000.0,0003.44,0002.97,0002.64
2023-05-14 03:14:00,,0839.2,5.01,0.00,30.1,28.6,00.0,38.5,31.7,26.1,0000.0,0003.53,0003.02,0002.65
2023-05-14 03:15:00,,0839.2,5.00,0.00,30.1,28.6,00.0,38.5,31.7,26.1,0000.0,0003.63,0003.06,0002.66
2023-05-14 03:16:00,,0839.3,4.99,0.00,30.1,28.6,00.0,38.5,31.7,26.1,0000.0,0003.67,0003.07,0002.66
2023-05-14 03:17:00,,0839.3,4.99,0.00,30.1,28.6,00.0,38.5,31.7,26.1,0000.0,0003.67,0003.09,0002.65
2023-05-14 03:18:00,,0839.3,5.01,0.00,30.1,28.6,00.0,38.5,31.7,26.1,0000.0,0003.57,0003.09,0002.67
2023-05-14 03:19:00,,0839.3,5.00,0.00,30.1,28.6,00.0,38.5,31.7,26.1,0000.0,0003.59,0003.10,0002.69
2023-05-14 03:20:00,,0839.4,4.99,0.00,30.1,28.6,00.0,38.5,31.7,26.1,0000.0,0003.60,0003.10,0002.69
2023-05-14 03:21:00,,0839.4,5.00,0.00,30.1,28.6,00.0,38.5,31.7,26.0,0000.0,0004.34,0003.12,0002.71
2023-05-14 03:22:00,,0839.4,5.01,0.00,30.1,28.6,00.0,38.5,31.7,26.0,0000.0,0004.89,0003.14,0002.72
2023-05-14 03:23:00,,0839.4,5.00,0.00,30.1,28.6,00.0,38.5,31.7,25.9,0000.0,0004.96,0003.14,0002.73
2023-05-14 03:24:00,,0839.4,4.99,0.00,30.1,28.6,00.0,38.5,31.7,25.9,0000.0,0005.28,0003.15,0002.73
2023-05-14 03:25:00,,0839.4,5.00,0.00,30.1,28.6,00.0,38.5,31.7,26.0,0000.0,0005.88,0003.14,0002.72
2023-05-14 03:26:00,,0839.5,5.01,0.00,30.1,28.6,00.0,38.5,31.7,25.9,0000.0,0006.00,0003.15,0002.73
2023-05-14 03:27:00,,0839.4,5.00,0.00,30.1,28.6,00.0,38.5,31.7,26.0,0000.0,0006.29,0003.16,0002.73
2023-05-14 03:28:00,,0839.5,4.99,0.00,30.1,28.6,00.0,38.5,31.7,26.0,0000.0,0006.29,0003.15,0002.74
2023-05-14 03:29:00,,0839.5,5.00,0.00,30.1,28.6,00.0,38.5,31.7,26.0,0000.0,0006.32,0003.14,0002.74
2023-05-14 03:30:00,,0839.5,5.01,0.00,30.1,28.6,00.0,38.5,31.7,26.0,0000.0,0006.27,0003.13,0002.74
2023-05-14 03:31:00,,0839.5,5.00,0.00,30.2,28.6,00.0,38.5,31.7,26.0,0000.0,0006.25,0003.14,0002.76
2023-05-14 03:32:00,,0839.5,5.00,0.00,30.2,28.6,00.0,38.5,31.7,25.9,0000.0,0005.82,0003.14,0002.76
2023-05-14 03:33:00,,0839.5,5.00,0.00,30.2,28.6,00.0,38.5,31.7,25.8,0000.0,0005.64,0003.16,0002.78
2023-05-14 03:34:00,,0839.5,5.00,0.00,30.2,28.6,00.0,38.5,31.7,25.8,0000.0,0007.01,0003.18,0002.80
2023-05-14 03:35:00,,0839.5,5.00,0.00,30.2,28.6,00.0,38.5,31.7,25.7,0000.0,0007.06,0003.14,0002.82
2023-05-14 03:36:00,,0839.5,5.00,0.00,30.2,28.6,00.0,38.5,31.7,25.6,0000.0,0006.25,0003.13,0002.84
2023-05-14 03:37:00,,0839.5,5.00,0.00,30.2,28.6,00.0,38.5,31.7,25.6,0000.0,0006.23,0003.14,0002.87
2023-05-14 03:38:00,,0839.5,5.00,0.00,30.2,28.6,00.0,38.5,31.7,25.5,0000.0,0005.86,0003.13,0002.90
2023-05-14 03:39:00,,0839.5,5.00,0.00,30.2,28.6,00.0,38.5,31.7,25.4,0000.0,0005.83,0003.13,0002.91
2023-05-14 03:40:00,,0839.5,4.99,0.00,30.2,28.6,00.0,38.5,31.7,25.5,0000.0,0005.77,0003.14,0002.94
2023-05-14 03:41:00,,0839.6,5.01,0.00,30.2,28.6,00.0,38.5,31.7,25.4,0000.0,0005.85,0003.16,0002.96
2023-05-14 03:42:00,,0839.6,5.01,0.00,30.2,28.6,00.0,38.5,31.7,25.3,0000.0,0006.13,0003.18,0002.98
2023-05-14 03:43:00,,0839.7,5.00,0.00,30.2,28.6,00.0,38.5,31.7,25.2,0000.0,0006.28,0003.20,0003.02
2023-05-14 03:44:00,,0839.7,4.99,0.00,30.2,28.6,00.0,38.5,31.7,25.2,0000.0,0006.16,0003.19,0003.03
2023-05-14 03:45:00,,0839.7,5.00,0.00,30.2,28.6,00.0,38.5,31.7,25.2,0000.0,0004.92,0003.20,0003.05
2023-05-14 03:46:00,,0839.7,5.00,0.00,30.2,28.5,00.0,38.5,31.7,25.1,0000.0,0004.89,0003.22,0003.08
2023-05-14 03:47:00,,0839.7,5.00,0.00,30.1,28.5,00.0,38.5,31.7,25.1,0000.0,0004.98,0003.25,0003.10
2023-05-14 03:48:00,,0839.7,5.01,0.00,30.1,28.5,00.0,38.5,31.7,25.0,0000.0,0004.95,0003.25,0003.11
2023-05-14 03:49:00,,0839.7,5.01,0.00,30.1,28.5,00.0,38.5,31.7,25.0,0000.0,0004.92,0003.25,0003.12
2023-05-14 03:50:00,,0839.7,5.00,0.00,30.1,28.5,00.0,38.5,31.6,25.1,0000.0,0004.90,0003.26,0003.13
2023-05-14 03:51:00,,0839.7,5.00,0.00,30.1,28.5,00.0,38.5,31.7,25.2,0000.0,0004.92,0003.27,0003.14
2023-05-14 03:52:00,,0839.7,4.99,0.00,30.1,28.5,00.0,38.5,31.6,25.1,0000.0,0005.01,0003.28,0003.15
2023-05-14 03:53:00,,0839.7,5.02,0.00,30.1,28.5,00.0,38.5,31.6,25.0,0000.0,0004.95,0003.28,0003.15
2023-05-14 03:54:00,,0839.7,5.00,0.00,30.1,28.5,00.0,38.5,31.6,25.0,0000.0,0004.96,0003.29,0003.16
2023-05-14 03:55:00,,0839.7,5.00,0.00,30.1,28.5,00.0,38.5,31.7,25.0,0000.0,0004.87,0003.29,0003.17
2023-05-14 03:56:00,,0839.7,4.99,0.00,30.1,28.5,00.0,38.5,31.7,24.9,0000.0,0004.97,0003.30,0003.17
2023-05-14 03:57:00,,0839.7,4.99,0.00,30.1,28.5,00.0,38.5,31.7,24.8,0000.0,0004.42,0003.30,0003.19
2023-05-14 03:58:00,,0839.7,5.01,0.00,30.1,28.5,00.0,38.5,31.6,24.9,0000.0,0004.39,0003.30,0003.19
2023-05-14 03:59:00,,0839.7,5.00,0.00,30.1,28.5,00.0,38.5,31.6,24.8,0000.0,0004.33,0003.30,0003.19
